Location: Plainartige
(45.6866°N, 1.7993°E)
Time: 17:15:22
(UTC+00:00)

RS-15 - Pass Details

Date: 04 July 2022
Orbit: 1881 x 2163 km, 64.8° (Epoch: 11 August)

Event Time Altitude Azimuth Distance (km) Brightness Sun altitude
Rises 21:18:11 0° 317° (NW) 5,691 12.5 -12.6°
Reaches altitude 10° 21:21:52 10° 323° (NW) 4,692 11.5 -12.9°
Maximum altitude 21:33:57 53° 39° (NE) 2,517 8.7 -14.2°
Drops below altitude 10° 21:45:41 10° 115° (ESE) 4,571 9.5 -15.3°
Enters shadow 21:45:53 - 115° (ESE) 4,629 9.5 -15.3°
